Helicity
32 23 29 14 14 38 62 63 53 37 30 30 19 9 3 50 63 66 73 65 57 42 43 44 64 124 156 193 183 124 83 94 112 94 67 93 154 196 163 113 84 84 59 43 42 41 37
36 38 36 34 39 29 35 78 61 49 35 39 23 25 17 27 10 51 52 43 41 39 24 32 53 97 127 169 111 90 120 156 87 60 98 100 178 114 187 112 77 56 56 36 44 40 42
48 47 36 37 40 37 28 66 64 54 37 40 26 37 61 77 54 39 50 38 29 28 21 30 48 70 117 84 86 88 92 90 90 72 62 90 74 190 160 109 91 55 46 20 56 38 35
36 44 48 35 39 42 36 39 61 60 42 37 25 36 51 75 60 61 61 27 22 24 32 50 76 87 137 77 40 88 109 93 66 79 65 85 108 189 213 158 69 73 56 49 43 18 41
40 45 50 39 33 38 37 42 39 58 57 40 27 37 62 82 73 53 55 22 26 30 50 85 125 149 126 116 92 51 51 70 95 82 46 119 122 151 136 193 122 97 65 39 74 17 48
44 53 43 41 33 31 35 38 47 38 75 51 32 30 59 95 104 79 49 43 53 134 113 127 135 152 140 79 66 46 32 47 66 83 84 128 106 155 165 207 167 106 102 66 55 50 49
36 57 45 37 37 35 39 44 52 50 68 64 46 29 50 93 106 113 93 139 283 233 241 264 131 280 198 49 59 26 63 80 77 100 121 89 163 59 109 125 145 83 51 29 49 80 106
33 40 63 40 31 35 28 45 53 51 55 64 51 30 47 54 82 106 112 276 237 198 235 154 233 119 158 104 49 27 66 99 74 18 72 95 84 89 102 123 138 103 81 35 61 78 75
32 34 47 48 31 26 29 36 51 51 45 58 56 47 48 67 71 133 155 126 128 258 173 149 194 209 134 25 48 26 48 30 4 30 42 117 6 88 145 45 93 108 73 64 91 82 65
38 38 45 58 36 28 30 29 47 47 44 61 65 55 61 80 102 140 156 223 247 332 131 138 196 127 37 50 -12 19 28 51 29 -29 -41 107 110 112 93 113 58 85 127 79 82 111 79
40 40 42 53 51 33 26 33 39 47 47 57 73 62 71 108 141 149 181 221 237 157 240 145 166 59 37 72 19 32 34 38 51 -71 54 127 94 112 60 98 46 87 57 63 94 116 53
21 32 29 41 55 34 27 30 39 38 47 57 70 84 94 93 81 102 204 250 246 182 313 170 115 132 67 12 19 70 40 55 46 -14 17 97 150 97 90 81 42 45 86 112 92 90 51
20 24 31 25 53 42 34 36 28 41 46 55 65 89 133 118 89 180 290 228 200 257 219 163 139 111 46 26 16 12 11 36 16 65 84 71 109 135 118 122 159 82 106 152 106 102 81
125 17 29 27 34 48 32 29 26 30 47 42 67 87 116 142 100 149 363 274 222 171 301 140 74 39 24 24 11 32 29 -4 -128 229 59 128 127 104 139 78 155 144 89 194 135 118 59
207 40 19 37 45 42 25 27 29 37 48 36 58 137 152 146 179 222 369 325 263 251 244 226 128 21 14 9 -9 36 45 -3 -69 192 30 198 254 221 128 231 115 186 152 156 133 110 105
291 146 30 24 24 36 29 24 28 39 39 42 99 86 84 94 219 261 347 256 191 233 59 89 52 0 3 14 25 46 -5 -83 -51 148 188 16 259 146 214 232 252 100 108 128 131 99 97
392 201 56 26 33 29 16 21 30 34 46 64 67 82 71 166 282 430 335 194 143 176 168 66 -10 -1 11 8 43 48 -47 -93 -26 111 104 53 227 283 95 117 104 178 165 149 133 111 95
192 317 92 41 41 21 6 21 29 32 69 51 75 79 167 305 250 327 271 160 87 48 55 14 -2 -8 20 -17 35 89 -9 47 29 124 121 88 131 210 245 164 82 60 66 81 104 86 130
-47 400 235 51 38 24 6 19 34 44 69 66 66 96 166 203 132 247 154 131 54 54 33 -12 60 35 -6 9 13 99 -11 34 2 70 142 146 127 143 144 142 141 109 99 40 56 116 53
7 277 275 101 46 24 7 18 37 37 43 63 80 94 112 120 106 116 120 31 -15 -11 9 52 17 20 -9 19 78 49 51 14 30 20 132 144 113 87 88 116 103 87 63 55 58 71 76
35 74 314 207 89 21 10 16 35 40 49 72 69 67 61 82 109 134 52 -11 -21 -20 -61 35 7 8 8 7 27 32 67 42 37 -10 22 171 136 92 111 96 0 41 112 117 107 88 85
131 23 268 210 179 19 8 17 32 47 61 78 68 71 47 28 -13 96 77 15 2 -6 -78 -10 12 -13 -17 25 37 17 64 21 50 -4 -32 142 136 128 77 87 61 62 66 89 87 55 33
146 -25 331 242 154 27 13 11 33 55 117 69 59 45 43 8 10 8 94 92 43 -6 -40 -10 18 11 13 51 51 20 20 50 56 70 -19 45 97 97 101 89 88 75 54 67 66 59 67
131 -49 247 304 142 91 23 13 35 56 91 73 58 67 34 19 25 0 -2 72 47 7 -3 16 41 30 43 5 44 65 83 118 78 133 62 49 43 82 86 105 78 80 93 43 63 60 80
113 -63 239 249 135 108 27 15 30 41 70 74 53 54 40 29 28 24 56 30 27 21 58 67 87 105 63 146 123 115 89 108 124 162 144 90 84 74 61 4 73 41 34 67 102 30 47
64 8 168 313 224 176 24 15 28 30 37 87 60 65 40 36 34 50 90 29 49 10 84 76 180 210 166 145 190 164 135 88 86 103 120 121 132 101 109 53 46 58 34 33 40 42 41
70 89 41 183 301 312 31 9 27 31 42 83 60 62 46 29 13 55 44 46 49 60 78 119 140 126 180 234 215 181 152 134 63 77 105 89 72 45 46 43 65 29 33 39 62 49 65
55 115 12 234 240 309 38 9 28 33 40 85 71 43 58 41 41 39 36 50 82 53 70 82 119 122 98 114 115 154 70 95 101 99 98 77 73 56 76 67 39 66 97 67 97 84 83
66 102 34 270 317 326 37 9 31 36 33 75 76 63 59 59 65 42 40 53 53 82 62 107 70 62 60 96 73 41 50 93 64 94 123 122 117 85 64 60 73 91 109 114 61 87 125
Wind_Speed
67 60 54 57 50 37 29 27 26 23 20 24 28 32 38 36 41 39 40 39 40 36 33 31 29 24 25 35 41 31 36 37 39 49 61 61 64 60 80 75 67 80 72 66 67 65 66
67 65 55 54 50 44 38 25 26 21 18 21 26 28 37 38 40 38 35 38 37 33 30 26 24 16 27 42 36 45 56 59 49 45 62 67 62 67 71 78 83 62 80 77 71 69 68
67 64 58 50 47 43 40 27 24 21 18 17 22 26 33 33 37 35 33 34 30 27 26 21 21 14 27 32 31 33 45 60 59 51 63 70 75 64 69 79 74 84 72 69 72 71 73
67 65 60 51 46 42 40 33 23 20 17 16 20 27 30 32 34 35 33 31 27 18 18 21 19 17 36 32 38 46 42 47 51 58 61 68 74 74 68 66 64 81 80 90 77 67 66
68 65 59 57 50 43 40 35 30 19 16 17 18 24 22 30 36 38 36 30 17 14 13 15 18 21 41 30 35 45 49 44 46 57 60 59 70 72 74 76 78 78 89 89 76 58 63
65 64 65 60 55 48 44 39 34 29 15 17 18 22 16 22 32 34 30 33 11 13 10 16 22 26 29 28 27 32 29 43 58 62 65 72 77 87 85 87 106 84 83 69 72 56 59
64 62 64 63 58 53 47 40 34 30 19 18 18 20 18 21 23 31 31 25 21 21 7 13 16 21 27 19 23 21 27 41 54 66 85 87 101 120 105 86 80 82 74 70 61 54 56
66 61 61 61 60 54 48 41 34 30 23 19 19 21 19 25 22 26 19 20 19 23 25 21 20 18 26 18 16 7 23 51 59 85 86 86 121 111 79 86 81 74 71 69 59 52 59
69 64 61 61 62 60 49 43 37 30 24 19 20 22 20 22 31 29 18 18 12 13 27 23 26 17 21 16 20 10 21 66 74 86 85 102 110 105 87 67 83 75 69 60 57 47 58
70 66 67 64 64 62 52 45 37 31 23 19 20 21 17 21 32 27 28 14 11 11 29 27 12 16 15 13 19 44 29 59 69 92 72 95 92 101 87 85 76 78 60 49 47 53 58
71 68 68 69 67 65 55 44 38 30 23 18 20 17 12 11 30 25 25 17 15 18 38 21 9 13 3 16 16 44 35 73 81 70 61 84 111 93 96 81 74 71 54 60 55 58 57
74 74 71 74 68 65 59 51 42 35 26 19 18 14 12 15 14 19 17 13 19 18 30 19 14 3 9 19 54 28 61 70 63 69 72 75 66 88 79 69 68 42 44 44 47 51 64
82 70 72 76 70 66 58 53 48 35 27 21 18 11 6 15 16 12 15 17 19 18 24 21 14 7 10 6 72 58 80 95 74 75 79 86 72 74 72 59 52 51 49 54 62 61 59
81 78 67 75 73 66 59 54 52 39 28 25 19 10 10 5 5 12 13 13 16 19 15 21 19 14 6 52 67 69 81 90 77 69 77 84 65 60 77 75 61 66 57 53 60 57 49
77 82 72 74 75 64 58 53 50 35 28 26 24 24 23 8 6 13 14 10 13 15 19 15 20 29 60 66 50 72 85 88 69 79 67 70 62 53 59 52 48 58 66 45 43 41 46
81 76 80 72 75 62 56 51 49 33 28 27 26 31 22 7 20 25 13 7 10 17 19 25 30 55 69 70 54 70 79 77 77 79 65 61 53 52 49 42 50 56 44 56 51 54 55
74 74 76 73 73 61 52 48 45 31 29 20 30 34 28 18 21 19 8 8 13 8 16 34 41 61 65 70 59 74 80 57 85 78 76 51 54 61 48 59 58 43 53 51 50 51 51
68 67 67 73 72 58 48 44 40 28 23 19 26 33 16 24 17 9 11 14 15 13 34 44 48 56 69 64 65 64 77 55 81 73 67 57 50 50 67 53 59 47 49 45 57 55 49
67 66 66 70 69 54 45 42 38 23 10 21 31 28 12 22 14 14 18 13 12 29 47 49 55 60 66 64 64 76 75 73 77 79 64 51 48 53 59 62 55 66 55 53 52 50 55
68 67 62 61 68 54 46 41 35 23 12 19 29 27 17 15 12 17 17 17 25 43 50 52 52 57 67 68 63 78 73 58 68 78 65 46 46 64 72 66 54 60 59 54 56 64 55
63 66 65 60 65 55 48 41 34 23 11 17 24 33 20 8 35 39 28 18 33 33 49 49 55 61 68 62 71 66 67 59 64 87 66 47 51 52 55 55 53 58 60 56 63 67 66
63 62 63 60 60 59 46 39 35 23 11 26 30 32 31 49 46 34 34 19 35 26 29 48 57 67 70 66 69 74 61 71 71 87 88 51 48 41 49 50 55 61 60 52 53 56 68
65 65 63 60 62 65 51 42 35 26 13 33 31 33 38 45 42 41 15 22 35 26 31 54 60 57 72 59 60 49 50 49 52 37 79 70 46 43 46 40 46 62 62 50 51 39 40
65 61 66 62 64 65 50 43 38 26 20 34 32 29 35 51 47 45 35 32 24 43 40 14 54 39 45 26 22 22 28 30 20 39 59 58 47 43 39 36 53 49 45 50 37 41 31
62 61 58 62 62 60 48 45 41 36 15 37 33 32 34 49 47 43 31 37 15 8 21 37 37 35 29 36 14 14 17 29 33 34 40 41 40 43 46 60 51 46 42 37 36 65 47
64 61 64 62 60 56 52 50 47 45 29 33 38 31 34 45 42 36 33 27 13 7 6 27 36 37 39 47 38 31 41 28 31 27 35 36 32 35 43 50 50 40 35 26 26 54 26
64 63 63 67 65 60 56 49 49 47 32 32 36 25 31 44 40 34 38 28 25 15 16 20 21 37 40 41 46 50 48 50 30 29 45 49 50 51 52 44 49 38 24 20 32 40 21
65 64 64 67 64 58 59 54 51 48 36 35 38 23 34 38 40 37 35 35 30 23 10 12 18 40 47 45 38 45 47 54 43 42 45 51 49 53 52 54 57 22 23 35 35 23 17
66 65 65 68 68 61 65 57 53 48 43 30 37 29 33 38 38 34 29 32 34 30 23 26 39 33 42 39 49 31 32 32 32 28 35 43 44 40 37 45 40 32 38 35 23 12 15
Wind_Direction
300 307 317 320 329 341 348 353 358 358 2 0 359 358 345 348 335 335 327 323 318 317 314 311 307 303 296 286 277 296 304 307 294 263 254 252 251 249 245 246 249 249 253 256 261 267 268
298 304 313 321 330 333 339 348 353 356 358 357 353 355 346 344 337 335 335 324 321 325 321 315 311 303 295 284 295 284 281 284 287 272 254 248 251 248 253 247 243 255 250 253 259 263 264
297 303 309 318 326 333 337 344 348 353 353 354 349 350 347 346 339 334 336 328 331 330 328 324 315 301 292 284 308 303 289 278 272 272 255 247 244 248 247 244 246 245 251 253 255 259 258
296 300 304 312 319 327 334 339 342 348 351 349 343 342 345 344 340 333 334 334 330 339 339 330 320 309 299 306 283 286 293 288 277 262 259 246 243 250 246 246 244 241 246 244 250 257 258
295 297 301 304 311 320 327 333 337 337 341 346 339 337 347 344 343 335 327 331 336 340 349 347 327 310 306 315 283 282 274 279 281 257 250 245 237 241 235 234 232 234 237 240 247 257 254
294 295 296 300 304 312 320 327 332 339 336 341 337 334 344 344 348 344 335 331 334 351 13 350 326 317 302 312 308 289 280 266 259 247 240 233 228 230 229 226 224 228 233 243 245 254 254
293 293 293 294 299 305 313 323 330 337 339 341 335 329 335 337 341 345 340 342 342 330 281 297 318 304 339 314 324 303 277 253 248 239 227 224 219 220 221 223 229 231 235 240 248 254 255
291 291 290 292 293 301 309 319 328 335 340 341 335 330 333 336 340 340 339 311 310 336 315 254 300 241 321 334 335 279 269 238 239 224 223 216 216 218 226 223 226 229 232 237 248 254 255
286 286 287 288 288 293 305 314 323 333 339 342 339 335 339 343 339 337 325 308 318 330 318 309 235 260 288 276 299 298 246 232 229 218 223 216 212 213 220 220 219 226 229 235 244 254 256
284 283 283 285 284 288 299 310 320 328 338 343 340 339 344 349 344 342 340 359 356 336 323 324 293 284 237 294 292 247 252 232 227 213 226 215 212 212 218 218 219 222 230 237 245 250 248
280 280 279 279 282 283 293 306 316 324 334 344 341 342 349 354 356 358 7 39 53 348 329 9 14 17 217 200 335 245 243 224 215 216 221 210 206 212 217 216 220 226 232 240 246 250 255
275 275 275 272 278 281 288 299 310 320 328 341 344 346 355 349 350 359 40 62 26 353 328 1 43 90 120 178 229 254 223 219 221 215 220 210 217 214 218 218 221 226 227 239 247 252 249
269 274 273 267 274 277 285 295 304 316 324 337 342 353 358 348 1 51 78 57 358 332 10 7 21 65 132 175 212 226 207 199 206 205 206 204 222 217 217 213 218 217 218 231 237 241 247
275 269 273 263 267 274 282 291 299 310 320 333 338 352 350 314 11 75 82 39 346 12 3 28 45 83 119 220 212 211 203 200 216 214 202 204 202 208 210 212 218 218 222 234 236 239 248
286 266 267 264 262 271 279 289 296 309 320 333 342 351 343 332 115 116 110 5 17 16 26 70 92 120 193 200 215 202 202 205 211 205 200 204 210 208 207 216 212 223 225 245 246 253 253
278 274 259 262 258 269 277 287 293 308 322 334 342 345 344 58 132 123 97 38 48 46 61 117 116 162 182 195 207 200 201 209 207 207 212 212 204 212 212 221 233 232 229 237 243 245 251
277 275 261 260 257 265 276 284 290 306 320 343 341 342 357 76 95 111 102 72 67 96 103 137 146 172 187 192 203 198 200 209 205 204 202 218 217 214 211 224 222 223 232 243 247 254 255
279 281 268 255 255 262 274 281 288 302 321 341 342 339 45 101 79 92 128 70 79 92 132 152 180 183 185 195 201 203 200 209 202 207 211 218 224 218 218 230 228 237 239 243 244 250 259
277 276 272 254 254 261 270 277 284 298 320 331 324 344 59 117 70 119 155 139 131 125 144 155 167 178 185 188 196 200 202 207 206 210 215 220 233 224 228 234 237 237 241 245 254 260 254
277 270 275 263 252 258 264 274 280 289 302 318 315 330 347 128 141 120 143 146 116 144 149 175 173 181 175 186 198 194 203 216 212 211 218 232 242 236 235 244 243 243 243 250 251 253 257
281 269 269 265 254 253 260 268 275 282 288 307 311 303 328 300 189 204 191 102 141 120 167 211 198 187 170 183 185 200 208 216 218 205 221 241 244 246 249 250 246 248 249 250 251 252 258
286 274 268 267 265 250 258 266 269 273 270 284 297 297 304 271 215 191 193 126 155 135 126 233 217 196 195 193 190 184 208 205 205 198 195 239 247 254 251 253 251 252 254 253 253 255 261
287 275 264 266 262 245 251 260 264 263 253 277 291 300 294 274 275 281 360 119 156 133 150 202 221 220 198 217 218 225 221 224 230 206 178 219 245 250 254 261 257 256 253 256 260 255 255
287 279 261 265 263 249 250 257 260 258 252 272 287 301 290 263 262 263 281 155 120 154 189 247 219 233 224 238 226 237 235 245 243 230 227 227 240 250 258 262 255 264 273 259 257 267 251
287 276 270 263 266 257 248 254 258 256 233 266 279 289 290 263 263 266 282 251 1 9 273 226 227 227 214 217 191 205 241 241 238 234 234 240 245 248 249 240 260 270 273 272 264 265 269
284 279 264 264 269 260 245 249 252 250 254 265 271 282 285 264 267 275 268 270 323 24 311 240 216 212 216 215 226 238 239 251 252 250 249 246 254 255 248 255 261 278 283 290 289 275 287
285 278 267 254 263 265 242 247 249 247 251 262 271 277 284 264 273 271 254 262 264 273 260 233 223 220 220 223 223 225 235 230 244 241 233 237 243 247 257 268 270 281 293 296 284 293 308
282 278 270 255 258 257 237 242 244 244 248 255 266 274 271 269 269 267 267 252 254 260 240 220 234 227 222 226 233 224 225 218 233 236 234 235 239 247 251 257 260 303 290 286 298 319 318
282 278 270 256 250 255 233 238 240 241 244 252 264 268 268 268 266 269 277 266 256 254 253 231 240 248 239 243 234 258 260 250 251 255 256 250 254 264 269 269 280 283 285 290 307 331 315